| time (UTC) | temp F | wind direction | speed knots | gust knots | rain 1hr in | rain 24hr in | rain mn in | humidity % | barometer mb |
| 20260504231517 | 71 | 248 | 0.9 | 3.5 | 0.00 | 0.00 | 0.00 | 40 | 1010.4 |
| 20260504230517 | 71 | 248 | 1.7 | 5.2 | 0.00 | 0.00 | 0.00 | 39 | 1010.3 |
| 20260504225517 | 72 | 225 | 0.9 | 5.2 | 0.00 | 0.00 | 0.00 | 38 | 1010.4 |
| 20260504224517 | 72 | 248 | 1.7 | 5.2 | 0.00 | 0.00 | 0.00 | 38 | 1010.5 |
| 20260504223517 | 72 | 248 | 2.6 | 9.6 | 0.00 | 0.00 | 0.00 | 36 | 1010.4 |
| 20260504222518 | 72 | 270 | 3.5 | 9.6 | 0.00 | 0.00 | 0.00 | 37 | 1010.5 |
| 20260504221517 | 73 | 293 | 0.9 | 6.1 | 0.00 | 0.00 | 0.00 | 36 | 1010.5 |
| 20260504220518 | 72 | 248 | 1.7 | 5.2 | 0.00 | 0.00 | 0.00 | 37 | 1010.4 |
| 20260504215517 | 72 | 270 | 3.5 | 9.6 | 0.00 | 0.00 | 0.00 | 37 | 1010.5 |
| 20260504214517 | 72 | 293 | 3.5 | 12.2 | 0.00 | 0.00 | 0.00 | 37 | 1010.6 |
| 20260504213517 | 72 | 248 | 2.6 | 7.8 | 0.00 | 0.00 | 0.00 | 36 | 1010.6 |
| 20260504212519 | 73 | 293 | 1.7 | 5.2 | 0.00 | 0.00 | 0.00 | 37 | 1010.6 |
| 20260504211517 | 73 | 270 | 2.6 | 6.1 | 0.00 | 0.00 | 0.00 | 38 | 1010.6 |
| 20260504210517 | 73 | 293 | 2.6 | 8.7 | 0.00 | 0.00 | 0.00 | 37 | 1010.7 |
| 20260504205517 | 72 | 270 | 1.7 | 3.5 | 0.00 | 0.00 | 0.00 | 39 | 1010.7 |
| 20260504204518 | 72 | 270 | 1.7 | 6.1 | 0.00 | 0.00 | 0.00 | 39 | 1010.7 |
| 20260504203517 | 72 | 248 | 3.5 | 10.4 | 0.00 | 0.00 | 0.00 | 37 | 1010.7 |
| 20260504202517 | 72 | 293 | 2.6 | 10.4 | 0.00 | 0.00 | 0.00 | 38 | 1010.8 |
| 20260504201517 | 72 | 293 | 1.7 | 5.2 | 0.00 | 0.00 | 0.00 | 41 | 1011.0 |
| 20260504200517 | 71 | 270 | 3.5 | 7.8 | 0.00 | 0.00 | 0.00 | 39 | 1011.1 |
| 20260504195517 | 71 | 270 | 2.6 | 7.8 | 0.00 | 0.00 | 0.00 | 39 | 1011.2 |
| 20260504194517 | 72 | 270 | 1.7 | 6.1 | 0.00 | 0.00 | 0.00 | 38 | 1011.2 |
| 20260504193517 | 71 | 315 | 2.6 | 8.7 | 0.00 | 0.00 | 0.00 | 39 | 1011.4 |
| 20260504192517 | 71 | 248 | 2.6 | 7.0 | 0.00 | 0.00 | 0.00 | 39 | 1011.5 |
| 20260504191516 | 70 | 248 | 3.5 | 12.2 | 0.00 | 0.00 | 0.00 | 40 | 1011.5 |
| 20260504190517 | 70 | 270 | 2.6 | 7.8 | 0.00 | 0.00 | 0.00 | 41 | 1011.7 |
| 20260504185517 | 71 | 203 | 2.6 | 5.2 | 0.00 | 0.00 | 0.00 | 38 | 1011.8 |
| 20260504184517 | 70 | 225 | 2.6 | 7.8 | 0.00 | 0.00 | 0.00 | 40 | 1011.8 |
| 20260504183516 | 70 | 248 | 2.6 | 7.8 | 0.00 | 0.00 | 0.00 | 38 | 1012.1 |
| 20260504182517 | 69 | 270 | 1.7 | 5.2 | 0.00 | 0.00 | 0.00 | 40 | 1012.1 |
| 20260504181516 | 69 | 293 | 2.6 | 13.0 | 0.00 | 0.00 | 0.00 | 39 | 1012.3 |
| 20260504180517 | 69 | 270 | 1.7 | 6.1 | 0.00 | 0.00 | 0.00 | 40 | 1012.4 |
| 20260504175517 | 69 | 270 | 1.7 | 7.8 | 0.00 | 0.00 | 0.00 | 39 | 1012.5 |
| 20260504174517 | 69 | 180 | 2.6 | 6.1 | 0.00 | 0.00 | 0.00 | 39 | 1012.8 |
| 20260504173518 | 69 | 248 | 2.6 | 8.7 | 0.00 | 0.00 | 0.00 | 38 | 1012.8 |
| 20260504172517 | 69 | 270 | 3.5 | 9.6 | 0.00 | 0.00 | 0.00 | 41 | 1013.1 |
| 20260504171517 | 69 | 203 | 2.6 | 7.0 | 0.00 | 0.00 | 0.00 | 38 | 1013.2 |
| 20260504170517 | 68 | 248 | 4.3 | 10.4 | 0.00 | 0.00 | 0.00 | 38 | 1013.3 |
| 20260504150517 | 64 | 248 | 2.6 | 7.8 | 0.00 | 0.00 | 0.00 | 48 | 1014.5 |
| 20260504140516 | 60 | 248 | 0.9 | 6.1 | 0.00 | 0.00 | 0.00 | 58 | 1014.7 |
| 20260504130516 | 55 | 293 | 1.7 | 4.3 | 0.00 | 0.00 | 0.00 | 72 | 1015.2 |
| 20260504110516 | 45 | 0.0 | 1.7 | 0.00 | 0.00 | 0.00 | 75 | 1015.5 | |
| 20260504100517 | 45 | 0.0 | 2.6 | 0.00 | 0.00 | 0.00 | 72 | 1015.7 | |
| 20260504081516 | 43 | 156 | 0.0 | 0.0 | 0.00 | 0.00 | 0.00 | 69 | 1015.6 |
| 20260504080516 | 43 | 156 | 0.0 | 0.0 | 0.00 | 0.00 | 0.00 | 69 | 1015.5 |
| 20260504050515 | 44 | 129 | 0.0 | 0.0 | 0.00 | 0.00 | 0.00 | 68 | 1015.5 |
| 20260504045515 | 44 | 129 | 0.0 | 0.0 | 0.00 | 0.00 | 0.00 | 67 | 1015.4 |
| 20260504044516 | 44 | 129 | 0.0 | 0.0 | 0.00 | 0.00 | 0.00 | 66 | 1015.5 |
| 20260504043516 | 44 | 129 | 0.0 | 0.0 | 0.00 | 0.00 | 0.00 | 67 | 1015.4 |
| 20260504042515 | 45 | 129 | 0.0 | 0.0 | 0.00 | 0.00 | 0.00 | 66 | 1015.2 |
| 20260504041516 | 45 | 129 | 0.0 | 0.0 | 0.00 | 0.00 | 0.00 | 64 | 1015.1 |
| 20260504040516 | 46 | 129 | 0.0 | 0.0 | 0.00 | 0.00 | 0.00 | 62 | 1015.1 |
| 20260504035516 | 47 | 129 | 0.0 | 0.0 | 0.00 | 0.00 | 0.00 | 59 | 1015.0 |
| 20260504034515 | 47 | 0.0 | 0.9 | 0.00 | 0.00 | 0.00 | 58 | 1015.0 | |
| 20260504033516 | 48 | 0.0 | 0.9 | 0.00 | 0.00 | 0.00 | 57 | 1015.0 | |
| 20260504032515 | 48 | 0.0 | 0.9 | 0.00 | 0.00 | 0.00 | 56 | 1014.9 | |
| 20260504031516 | 49 | 0.0 | 0.9 | 0.00 | 0.00 | 0.00 | 54 | 1014.8 | |
| 20260504030516 | 49 | 142 | 0.0 | 0.0 | 0.00 | 0.00 | 0.00 | 53 | 1014.8 |
| 20260504025515 | 49 | 0.0 | 0.9 | 0.00 | 0.00 | 0.00 | 54 | 1014.7 | |
| 20260504024516 | 50 | 0.0 | 0.9 | 0.00 | 0.00 | 0.00 | 52 | 1014.9 | |
| 20260504023516 | 50 | 0.0 | 0.9 | 0.00 | 0.00 | 0.00 | 52 | 1014.9 | |
| 20260504022516 | 50 | 0.0 | 0.9 | 0.00 | 0.00 | 0.00 | 51 | 1014.9 | |
| 20260504021516 | 50 | 0.0 | 0.9 | 0.00 | 0.00 | 0.00 | 51 | 1014.8 | |
| 20260504020515 | 51 | 138 | 0.0 | 0.0 | 0.00 | 0.00 | 0.00 | 51 | 1014.8 |
| 20260504015520 | 51 | 0.0 | 0.9 | 0.00 | 0.00 | 0.00 | 51 | 1014.8 | |
| 20260504014516 | 51 | 0.0 | 0.9 | 0.00 | 0.00 | 0.00 | 50 | 1014.7 | |
| 20260504013516 | 52 | 0.0 | 0.9 | 0.00 | 0.00 | 0.00 | 49 | 1014.5 | |
| 20260504012515 | 52 | 237 | 0.0 | 0.0 | 0.00 | 0.00 | 0.00 | 48 | 1014.5 |
| 20260504011515 | 52 | 0.0 | 0.9 | 0.00 | 0.00 | 0.00 | 48 | 1014.4 | |
| 20260504010515 | 52 | 0.0 | 1.7 | 0.00 | 0.00 | 0.00 | 48 | 1014.3 | |
| 20260504005515 | 53 | 238 | 0.0 | 0.0 | 0.00 | 0.00 | 0.00 | 48 | 1014.3 |
| 20260504004515 | 53 | 0.0 | 0.9 | 0.00 | 0.00 | 0.00 | 47 | 1014.2 | |
| 20260504003517 | 54 | 0.0 | 0.9 | 0.00 | 0.00 | 0.00 | 46 | 1014.0 | |
| 20260504002518 | 55 | 0.0 | 0.9 | 0.00 | 0.00 | 0.00 | 44 | 1013.8 | |
| 20260504001517 | 56 | 0.0 | 0.9 | 0.00 | 0.00 | 0.00 | 42 | 1013.8 | |
| 20260504000517 | 57 | 248 | 0.9 | 6.1 | 0.00 | 0.00 | 0.00 | 40 | 1013.7 |
| 20260503235518 | 57 | 0.0 | 2.6 | 0.00 | 0.00 | 0.00 | 39 | 1013.6 | |
| 20260503234515 | 58 | 270 | 0.9 | 3.5 | 0.00 | 0.00 | 0.00 | 38 | 1013.5 |
| 20260503233517 | 58 | 0.0 | 1.7 | 0.00 | 0.00 | 0.00 | 38 | 1013.4 | |
| 20260503232517 | 59 | 293 | 1.7 | 4.3 | 0.00 | 0.00 | 0.00 | 36 | 1013.4 |